owner,sensor,date,latitude,longitude,vertical_datum,sea_water_temperature,qcFlag
Shell,ioos:station:wmo:42906:2,2021-08-01T00:00:00Z,26.6513,-94.5343,10.4,30.5,11111222
Shell,ioos:station:wmo:42906:2,2021-08-01T00:10:00Z,26.6514,-94.5339,10.3,30.3,11111222
Shell,ioos:station:wmo:42906:2,2021-08-01T00:20:00Z,26.6513,-94.5342,10.2,30.4,11111222
Shell,ioos:station:wmo:42906:2,2021-08-01T00:30:00Z,26.6516,-94.5333,10.3,30.4,11111222
Shell,ioos:station:wmo:42906:2,2021-08-01T00:40:00Z,26.6515,-94.5340,10.3,30.3,11111222
Shell,ioos:station:wmo:42906:2,2021-08-01T00:50:00Z,26.6514,-94.5340,10.4,30.3,11111222
Shell,ioos:station:wmo:42906:2,2021-08-01T01:00:00Z,26.6513,-94.5341,10.2,30.2,11111222
Shell,ioos:station:wmo:42906:2,2021-08-01T01:10:00Z,26.6512,-94.5343,10.2,30.3,11111222
Shell,ioos:station:wmo:42906:2,2021-08-01T01:20:00Z,26.6512,-94.5341,10.4,30.3,11111222
Shell,ioos:station:wmo:42906:2,2021-08-01T01:30:00Z,26.6513,-94.5339,10.7,30.2,11111222
Shell,ioos:station:wmo:42906:2,2021-08-01T01:40:00Z,26.6516,-94.5336,10.5,30.2,11111222
Shell,ioos:station:wmo:42906:2,2021-08-01T01:50:00Z,26.6515,-94.5336,10.5,30.2,11111222
Shell,ioos:station:wmo:42906:2,2021-08-01T02:00:00Z,26.6516,-94.5336,10.4,30.2,11111222
Shell,ioos:station:wmo:42906:2,2021-08-01T02:10:00Z,26.6515,-94.5338,10.3,30.3,11111222
Shell,ioos:station:wmo:42906:2,2021-08-01T02:20:00Z,26.6513,-94.5336,10.4,30.3,11111222
Shell,ioos:station:wmo:42906:2,2021-08-01T02:30:00Z,26.6515,-94.5336,10.3,30.3,11111222
Shell,ioos:station:wmo:42906:2,2021-08-01T02:40:00Z,26.6515,-94.5337,10.3,30.4,11111222
Shell,ioos:station:wmo:42906:2,2021-08-01T02:50:00Z,26.6515,-94.5338,10.3,30.4,11111222
Shell,ioos:station:wmo:42906:2,2021-08-01T03:01:00Z,26.6515,-94.5337,10.3,30.5,11111222
Shell,ioos:station:wmo:42906:2,2021-08-01T03:11:00Z,26.6515,-94.5337,10.3,30.4,11111222
Shell,ioos:station:wmo:42906:2,2021-08-01T03:21:00Z,26.6516,-94.5337,10.3,30.4,11111222
Shell,ioos:station:wmo:42906:2,2021-08-01T03:31:00Z,26.6516,-94.5338,10.3,30.4,11111222
Shell,ioos:station:wmo:42906:2,2021-08-01T03:41:00Z,26.6516,-94.5337,10.2,30.3,11111222
Shell,ioos:station:wmo:42906:2,2021-08-01T03:51:00Z,26.6515,-94.5338,10.3,30.3,11111222
Shell,ioos:station:wmo:42906:2,2021-08-01T04:01:00Z,26.6513,-94.5343,10.3,30.4,11111222
Shell,ioos:station:wmo:42906:2,2021-08-01T04:11:00Z,26.6515,-94.5337,10.4,30.4,11111222
Shell,ioos:station:wmo:42906:2,2021-08-01T04:21:00Z,26.6516,-94.5336,10.5,30.4,11111222
Shell,ioos:station:wmo:42906:2,2021-08-01T04:31:00Z,26.6516,-94.5336,10.5,30.4,11111222
Shell,ioos:station:wmo:42906:2,2021-08-01T04:41:00Z,26.6516,-94.5336,10.4,30.4,11111222
Shell,ioos:station:wmo:42906:2,2021-08-01T04:51:00Z,26.6515,-94.5337,10.4,30.4,11111222
Shell,ioos:station:wmo:42906:2,2021-08-01T05:01:00Z,26.6516,-94.5338,10.4,30.4,11111222
Shell,ioos:station:wmo:42906:2,2021-08-01T05:11:00Z,26.6515,-94.5338,10.4,30.4,11111222
Shell,ioos:station:wmo:42906:2,2021-08-01T05:21:00Z,26.6515,-94.5340,10.3,30.4,11111222
Shell,ioos:station:wmo:42906:2,2021-08-01T05:31:00Z,26.6515,-94.5338,10.3,30.4,11111222
Shell,ioos:station:wmo:42906:2,2021-08-01T05:41:00Z,26.6515,-94.5337,10.4,30.4,11111222
Shell,ioos:station:wmo:42906:2,2021-08-01T05:51:00Z,26.6516,-94.5337,10.3,30.4,11111222
Shell,ioos:station:wmo:42906:2,2021-08-01T06:01:00Z,26.6515,-94.5341,10.3,30.3,11111222
Shell,ioos:station:wmo:42906:2,2021-08-01T06:11:00Z,26.6516,-94.5335,10.3,30.3,11111222
Shell,ioos:station:wmo:42906:2,2021-08-01T06:21:00Z,26.6516,-94.5337,10.2,30.2,11111222
Shell,ioos:station:wmo:42906:2,2021-08-01T06:31:00Z,26.6515,-94.5336,10.6,30.2,11111222
Shell,ioos:station:wmo:42906:2,2021-08-01T06:41:00Z,26.6511,-94.5330,10.6,30.3,11111222
Shell,ioos:station:wmo:42906:2,2021-08-01T06:51:00Z,26.6507,-94.5330,10.6,30.2,11111222
Shell,ioos:station:wmo:42906:2,2021-08-01T07:01:00Z,26.6507,-94.5330,10.5,30.2,11111222
Shell,ioos:station:wmo:42906:2,2021-08-01T07:11:00Z,26.6508,-94.5326,10.6,30.2,11111222
Shell,ioos:station:wmo:42906:2,2021-08-01T07:21:00Z,26.6510,-94.5322,10.7,30.3,11111222
Shell,ioos:station:wmo:42906:2,2021-08-01T07:31:00Z,26.6509,-94.5323,10.5,30.3,11111222
Shell,ioos:station:wmo:42906:2,2021-08-01T07:41:00Z,26.6509,-94.5323,10.5,30.2,11111222
Shell,ioos:station:wmo:42906:2,2021-08-01T07:51:00Z,26.6509,-94.5324,10.6,30.2,11111222
Shell,ioos:station:wmo:42906:2,2021-08-01T08:01:00Z,26.6509,-94.5324,10.7,30.1,11111222
Shell,ioos:station:wmo:42906:2,2021-08-01T08:11:00Z,26.6509,-94.5324,10.5,30.1,11111222
Shell,ioos:station:wmo:42906:2,2021-08-01T08:21:00Z,26.6508,-94.5325,10.5,30.1,11111222
Shell,ioos:station:wmo:42906:2,2021-08-01T08:31:00Z,26.6508,-94.5329,10.5,30.1,11111222
Shell,ioos:station:wmo:42906:2,2021-08-01T08:41:00Z,26.6509,-94.5323,10.6,30.1,11111222
Shell,ioos:station:wmo:42906:2,2021-08-01T08:51:00Z,26.6508,-94.5327,10.6,30.1,11111222
Shell,ioos:station:wmo:42906:2,2021-08-01T09:01:00Z,26.6509,-94.5325,10.6,30.2,11111222
Shell,ioos:station:wmo:42906:2,2021-08-01T09:11:00Z,26.6509,-94.5324,10.5,30.2,11111222
Shell,ioos:station:wmo:42906:2,2021-08-01T09:21:00Z,26.6508,-94.5325,10.6,30.2,11111222
Shell,ioos:station:wmo:42906:2,2021-08-01T09:31:00Z,26.6509,-94.5324,10.5,30.2,11111222
Shell,ioos:station:wmo:42906:2,2021-08-01T09:41:00Z,26.6509,-94.5324,10.4,30.2,11111222
Shell,ioos:station:wmo:42906:2,2021-08-01T09:51:00Z,26.6509,-94.5324,10.4,30.3,11111222
Shell,ioos:station:wmo:42906:2,2021-08-01T10:01:00Z,26.6508,-94.5323,10.4,30.4,11111222
Shell,ioos:station:wmo:42906:2,2021-08-01T10:11:00Z,26.6508,-94.5324,10.4,30.4,11111222
Shell,ioos:station:wmo:42906:2,2021-08-01T10:21:00Z,26.6508,-94.5324,10.4,30.3,11111222
Shell,ioos:station:wmo:42906:2,2021-08-01T10:32:00Z,26.6508,-94.5325,10.4,30.3,11111222
Shell,ioos:station:wmo:42906:2,2021-08-01T10:42:00Z,26.6508,-94.5325,10.4,30.4,11111222
Shell,ioos:station:wmo:42906:2,2021-08-01T10:52:00Z,26.6509,-94.5323,10.5,30.3,11111222
Shell,ioos:station:wmo:42906:2,2021-08-01T11:02:00Z,26.6508,-94.5325,10.5,30.3,11111222
Shell,ioos:station:wmo:42906:2,2021-08-01T11:12:00Z,26.6509,-94.5325,10.6,30.3,11111222
Shell,ioos:station:wmo:42906:2,2021-08-01T11:22:00Z,26.6511,-94.5323,10.5,30.2,11111222
Shell,ioos:station:wmo:42906:2,2021-08-01T11:32:00Z,26.6509,-94.5324,10.5,30.3,11111222
Shell,ioos:station:wmo:42906:2,2021-08-01T11:42:00Z,26.6508,-94.5324,10.5,30.4,11111222
Shell,ioos:station:wmo:42906:2,2021-08-01T11:52:00Z,26.6509,-94.5324,10.3,30.4,11111222
Shell,ioos:station:wmo:42906:2,2021-08-01T12:02:00Z,26.6509,-94.5323,10.4,30.4,11111222
Shell,ioos:station:wmo:42906:2,2021-08-01T12:12:00Z,26.6509,-94.5323,10.5,30.4,11111222
Shell,ioos:station:wmo:42906:2,2021-08-01T12:22:00Z,26.6508,-94.5324,10.5,30.3,11111222
Shell,ioos:station:wmo:42906:2,2021-08-01T12:32:00Z,26.6508,-94.5325,10.5,30.2,11111222
Shell,ioos:station:wmo:42906:2,2021-08-01T12:42:00Z,26.6508,-94.5326,10.4,30.3,11111222
Shell,ioos:station:wmo:42906:2,2021-08-01T12:52:00Z,26.6508,-94.5325,10.4,30.3,11111222
Shell,ioos:station:wmo:42906:2,2021-08-01T13:02:00Z,26.6509,-94.5321,10.3,30.3,11111222
Shell,ioos:station:wmo:42906:2,2021-08-01T13:12:00Z,26.6509,-94.5326,10.2,30.3,11111222
Shell,ioos:station:wmo:42906:2,2021-08-01T13:22:00Z,26.6508,-94.5325,10.4,30.2,11111222
Shell,ioos:station:wmo:42906:2,2021-08-01T13:32:00Z,26.6508,-94.5325,10.5,30.1,11111222
Shell,ioos:station:wmo:42906:2,2021-08-01T13:42:00Z,26.6509,-94.5324,10.5,30.1,11111222
Shell,ioos:station:wmo:42906:2,2021-08-01T13:52:00Z,26.6508,-94.5324,10.5,30.1,11111222
Shell,ioos:station:wmo:42906:2,2021-08-01T14:02:00Z,26.6509,-94.5324,10.5,30.1,11111222
Shell,ioos:station:wmo:42906:2,2021-08-01T14:12:00Z,26.6509,-94.5324,10.5,30.2,11111222
Shell,ioos:station:wmo:42906:2,2021-08-01T14:22:00Z,26.6509,-94.5324,10.5,30.2,11111222
Shell,ioos:station:wmo:42906:2,2021-08-01T14:32:00Z,26.6508,-94.5325,10.4,30.3,11111222
Shell,ioos:station:wmo:42906:2,2021-08-01T14:42:00Z,26.6509,-94.5327,10.5,30.4,11111222
Shell,ioos:station:wmo:42906:2,2021-08-01T14:52:00Z,26.6511,-94.5325,10.5,30.3,11111222
Shell,ioos:station:wmo:42906:2,2021-08-01T15:02:00Z,26.6511,-94.5325,10.6,30.2,11111222
Shell,ioos:station:wmo:42906:2,2021-08-01T15:12:00Z,26.6510,-94.5323,10.6,30.3,11111222
Shell,ioos:station:wmo:42906:2,2021-08-01T15:22:00Z,26.6510,-94.5324,10.6,30.2,11111222
Shell,ioos:station:wmo:42906:2,2021-08-01T15:32:00Z,26.6510,-94.5325,10.5,30.2,11111222
Shell,ioos:station:wmo:42906:2,2021-08-01T15:42:00Z,26.6511,-94.5327,10.7,30.2,11111222
Shell,ioos:station:wmo:42906:2,2021-08-01T15:52:00Z,26.6510,-94.5324,10.5,30.1,11111222
Shell,ioos:station:wmo:42906:2,2021-08-01T16:02:00Z,26.6510,-94.5325,10.5,30.1,11111222
Shell,ioos:station:wmo:42906:2,2021-08-01T16:12:00Z,26.6511,-94.5324,10.4,30.1,11111222
Shell,ioos:station:wmo:42906:2,2021-08-01T16:22:00Z,26.6511,-94.5325,10.6,30.0,11111222
Shell,ioos:station:wmo:42906:2,2021-08-01T16:32:00Z,26.6509,-94.5323,10.6,30.1,11111222
Shell,ioos:station:wmo:42906:2,2021-08-01T16:42:00Z,26.6511,-94.5325,10.6,30.1,11111222
Shell,ioos:station:wmo:42906:2,2021-08-01T16:52:00Z,26.6511,-94.5324,10.6,30.2,11111222
Shell,ioos:station:wmo:42906:2,2021-08-01T17:02:00Z,26.6510,-94.5326,10.5,30.2,11111222
Shell,ioos:station:wmo:42906:2,2021-08-01T17:12:00Z,26.6510,-94.5325,10.6,30.2,11111222
Shell,ioos:station:wmo:42906:2,2021-08-01T17:22:00Z,26.6510,-94.5324,10.5,30.3,11111222
Shell,ioos:station:wmo:42906:2,2021-08-01T17:32:00Z,26.6510,-94.5324,10.5,30.3,11111222
Shell,ioos:station:wmo:42906:2,2021-08-01T17:42:00Z,26.6511,-94.5324,10.5,30.4,11111222
Shell,ioos:station:wmo:42906:2,2021-08-01T17:53:00Z,26.6510,-94.5324,10.7,30.4,11111222
Shell,ioos:station:wmo:42906:2,2021-08-01T18:03:00Z,26.6511,-94.5325,10.6,30.4,11111222
Shell,ioos:station:wmo:42906:2,2021-08-01T18:13:00Z,26.6510,-94.5324,10.5,30.5,11111222
Shell,ioos:station:wmo:42906:2,2021-08-01T18:23:00Z,26.6510,-94.5324,10.6,30.5,11111222
Shell,ioos:station:wmo:42906:2,2021-08-01T18:33:00Z,26.6510,-94.5324,10.6,30.6,11111222
Shell,ioos:station:wmo:42906:2,2021-08-01T18:43:00Z,26.6510,-94.5321,10.8,30.6,11111222
Shell,ioos:station:wmo:42906:2,2021-08-01T18:53:00Z,26.6510,-94.5323,10.8,30.7,11111222
Shell,ioos:station:wmo:42906:2,2021-08-01T19:03:00Z,26.6511,-94.5326,10.6,30.7,11111222
Shell,ioos:station:wmo:42906:2,2021-08-01T19:13:00Z,26.6510,-94.5325,10.6,30.6,11111222
Shell,ioos:station:wmo:42906:2,2021-08-01T19:23:00Z,26.6510,-94.5325,10.6,30.6,11111222
Shell,ioos:station:wmo:42906:2,2021-08-01T19:33:00Z,26.6511,-94.5327,10.6,30.6,11111222
Shell,ioos:station:wmo:42906:2,2021-08-01T19:43:00Z,26.6511,-94.5326,10.5,30.5,11111222
Shell,ioos:station:wmo:42906:2,2021-08-01T19:53:00Z,26.6510,-94.5324,10.5,30.5,11111222
Shell,ioos:station:wmo:42906:2,2021-08-01T20:03:00Z,26.6510,-94.5325,10.4,30.4,11111222
Shell,ioos:station:wmo:42906:2,2021-08-01T20:13:00Z,26.6510,-94.5325,10.5,30.5,11111222
Shell,ioos:station:wmo:42906:2,2021-08-01T20:23:00Z,26.6510,-94.5325,10.5,30.3,11111222
Shell,ioos:station:wmo:42906:2,2021-08-01T20:33:00Z,26.6511,-94.5325,10.5,30.1,11111222
Shell,ioos:station:wmo:42906:2,2021-08-01T20:43:00Z,26.6514,-94.5327,10.4,30.1,11111222
Shell,ioos:station:wmo:42906:2,2021-08-01T20:53:00Z,26.6514,-94.5327,10.5,30.1,11111222
Shell,ioos:station:wmo:42906:2,2021-08-01T21:03:00Z,26.6508,-94.5325,10.5,30.1,11111222
Shell,ioos:station:wmo:42906:2,2021-08-01T21:13:00Z,26.6507,-94.5326,10.5,30.1,11111222
Shell,ioos:station:wmo:42906:2,2021-08-01T21:23:00Z,26.6514,-94.5332,10.4,30.1,11111222
Shell,ioos:station:wmo:42906:2,2021-08-01T21:33:00Z,26.6516,-94.5336,10.5,30.0,11111222
Shell,ioos:station:wmo:42906:2,2021-08-01T21:43:00Z,26.6515,-94.5337,10.6,29.9,11111222
Shell,ioos:station:wmo:42906:2,2021-08-01T21:53:00Z,26.6517,-94.5337,10.6,30.0,11111222
Shell,ioos:station:wmo:42906:2,2021-08-01T22:03:00Z,26.6519,-94.5337,10.6,30.0,11111222
Shell,ioos:station:wmo:42906:2,2021-08-01T22:13:00Z,26.6517,-94.5337,10.6,30.1,11111222
Shell,ioos:station:wmo:42906:2,2021-08-01T22:23:00Z,26.6515,-94.5333,10.6,30.1,11111222
Shell,ioos:station:wmo:42906:2,2021-08-01T22:33:00Z,26.6516,-94.5339,10.6,30.1,11111222
Shell,ioos:station:wmo:42906:2,2021-08-01T22:43:00Z,26.6516,-94.5338,10.7,30.2,11111222
Shell,ioos:station:wmo:42906:2,2021-08-01T22:53:00Z,26.6516,-94.5336,10.7,30.2,11111222
Shell,ioos:station:wmo:42906:2,2021-08-01T23:03:00Z,26.6518,-94.5341,10.7,30.2,11111222
Shell,ioos:station:wmo:42906:2,2021-08-01T23:13:00Z,26.6516,-94.5337,10.7,30.2,11111222
Shell,ioos:station:wmo:42906:2,2021-08-01T23:23:00Z,26.6517,-94.5338,10.7,30.3,11111222
Shell,ioos:station:wmo:42906:2,2021-08-01T23:33:00Z,26.6516,-94.5336,10.6,30.3,11111222
Shell,ioos:station:wmo:42906:2,2021-08-01T23:43:00Z,26.6514,-94.5334,10.7,30.3,11111222
Shell,ioos:station:wmo:42906:2,2021-08-01T23:53:00Z,26.6519,-94.5337,10.6,30.3,11111222
Shell,ioos:station:wmo:42906:2,2021-08-02T00:03:00Z,26.6515,-94.5336,10.6,30.3,11111222
Shell,ioos:station:wmo:42906:2,2021-08-02T00:13:00Z,26.6516,-94.5336,10.5,30.3,11111222
Shell,ioos:station:wmo:42906:2,2021-08-02T00:23:00Z,26.6518,-94.5336,10.4,30.3,11111222
Shell,ioos:station:wmo:42906:2,2021-08-02T00:33:00Z,26.6517,-94.5348,10.4,30.3,11111222
Shell,ioos:station:wmo:42906:2,2021-08-02T00:43:00Z,26.6516,-94.5350,10.4,30.2,11111222
Shell,ioos:station:wmo:42906:2,2021-08-02T00:53:00Z,26.6518,-94.5328,10.4,30.2,11111222
Shell,ioos:station:wmo:42906:2,2021-08-02T01:03:00Z,26.6518,-94.5339,10.4,30.2,11111222
Shell,ioos:station:wmo:42906:2,2021-08-02T01:14:00Z,26.6517,-94.5336,10.5,30.2,11111222
Shell,ioos:station:wmo:42906:2,2021-08-02T01:24:00Z,26.6517,-94.5337,10.5,30.2,11111222
Shell,ioos:station:wmo:42906:2,2021-08-02T01:34:00Z,26.6517,-94.5337,10.4,30.1,11111222
Shell,ioos:station:wmo:42906:2,2021-08-02T01:44:00Z,26.6515,-94.5337,10.5,30.1,11111222
Shell,ioos:station:wmo:42906:2,2021-08-02T01:54:00Z,26.6501,-94.5330,10.4,30.1,11111222
Shell,ioos:station:wmo:42906:2,2021-08-02T02:04:00Z,26.6521,-94.5342,10.4,30.1,11111222
Shell,ioos:station:wmo:42906:2,2021-08-02T02:14:00Z,26.6517,-94.5338,10.4,30.1,11111222
Shell,ioos:station:wmo:42906:2,2021-08-02T02:24:00Z,26.6516,-94.5335,10.5,30.2,11111222
Shell,ioos:station:wmo:42906:2,2021-08-02T02:34:00Z,26.6515,-94.5335,10.4,30.1,11111222
Shell,ioos:station:wmo:42906:2,2021-08-02T02:44:00Z,26.6516,-94.5339,10.4,30.1,11111222
Shell,ioos:station:wmo:42906:2,2021-08-02T02:54:00Z,26.6516,-94.5335,10.2,30.1,11111222
Shell,ioos:station:wmo:42906:2,2021-08-02T03:04:00Z,26.6516,-94.5337,10.3,30.1,11111222
Shell,ioos:station:wmo:42906:2,2021-08-02T03:14:00Z,26.6516,-94.5336,10.4,30.1,11111222
Shell,ioos:station:wmo:42906:2,2021-08-02T03:24:00Z,26.6515,-94.5336,10.4,30.1,11111222
Shell,ioos:station:wmo:42906:2,2021-08-02T03:34:00Z,26.6517,-94.5336,10.6,30.0,11111222
Shell,ioos:station:wmo:42906:2,2021-08-02T03:44:00Z,26.6516,-94.5336,10.6,30.0,11111222
Shell,ioos:station:wmo:42906:2,2021-08-02T03:54:00Z,26.6516,-94.5341,10.6,30.0,11111222
Shell,ioos:station:wmo:42906:2,2021-08-02T04:04:00Z,26.6516,-94.5336,10.7,30.0,11111222
Shell,ioos:station:wmo:42906:2,2021-08-02T04:14:00Z,26.6516,-94.5339,10.8,30.0,11111222
Shell,ioos:station:wmo:42906:2,2021-08-02T04:24:00Z,26.6516,-94.5336,10.7,30.0,11111222
Shell,ioos:station:wmo:42906:2,2021-08-02T04:34:00Z,26.6516,-94.5340,10.6,30.1,11111222
Shell,ioos:station:wmo:42906:2,2021-08-02T04:44:00Z,26.6516,-94.5339,10.6,30.2,11111222
Shell,ioos:station:wmo:42906:2,2021-08-02T04:54:00Z,26.6516,-94.5341,10.6,30.3,11111222
Shell,ioos:station:wmo:42906:2,2021-08-02T05:04:00Z,26.6515,-94.5340,10.6,30.3,11111222
Shell,ioos:station:wmo:42906:2,2021-08-02T05:14:00Z,26.6516,-94.5339,10.6,30.3,11111222
Shell,ioos:station:wmo:42906:2,2021-08-02T05:24:00Z,26.6517,-94.5340,10.6,30.3,11111222
Shell,ioos:station:wmo:42906:2,2021-08-02T05:34:00Z,26.6517,-94.5340,10.8,30.2,11111222
Shell,ioos:station:wmo:42906:2,2021-08-02T05:44:00Z,26.6516,-94.5338,10.7,30.2,11111222
Shell,ioos:station:wmo:42906:2,2021-08-02T05:54:00Z,26.6518,-94.5342,10.7,30.1,11111222
Shell,ioos:station:wmo:42906:2,2021-08-02T06:04:00Z,26.6519,-94.5342,10.7,30.1,11111222
Shell,ioos:station:wmo:42906:2,2021-08-02T06:14:00Z,26.6519,-94.5338,10.7,30.1,11111222
Shell,ioos:station:wmo:42906:2,2021-08-02T06:24:00Z,26.6520,-94.5338,10.6,30.1,11111222
Shell,ioos:station:wmo:42906:2,2021-08-02T06:34:00Z,26.6516,-94.5338,10.6,30.0,11111222
Shell,ioos:station:wmo:42906:2,2021-08-02T06:44:00Z,26.6515,-94.5341,10.6,30.0,11111222
Shell,ioos:station:wmo:42906:2,2021-08-02T06:54:00Z,26.6518,-94.5339,10.7,29.9,11111222
Shell,ioos:station:wmo:42906:2,2021-08-02T07:04:00Z,26.6522,-94.5338,10.7,29.9,11111222
Shell,ioos:station:wmo:42906:2,2021-08-02T07:14:00Z,26.6523,-94.5338,10.8,29.9,11111222
Shell,ioos:station:wmo:42906:2,2021-08-02T07:24:00Z,26.6520,-94.5341,10.7,29.9,11111222
Shell,ioos:station:wmo:42906:2,2021-08-02T07:34:00Z,26.6513,-94.5340,10.7,29.9,11111222
Shell,ioos:station:wmo:42906:2,2021-08-02T07:44:00Z,26.6516,-94.5339,10.7,29.9,11111222
Shell,ioos:station:wmo:42906:2,2021-08-02T07:54:00Z,26.6516,-94.5339,10.8,29.9,11111222
Shell,ioos:station:wmo:42906:2,2021-08-02T08:04:00Z,26.6516,-94.5340,10.8,29.9,11111222
Shell,ioos:station:wmo:42906:2,2021-08-02T08:14:00Z,26.6517,-94.5340,10.7,30.0,11111222
Shell,ioos:station:wmo:42906:2,2021-08-02T08:24:00Z,26.6516,-94.5338,10.7,30.0,11111222
Shell,ioos:station:wmo:42906:2,2021-08-02T08:34:00Z,26.6516,-94.5340,10.5,30.1,11111222
Shell,ioos:station:wmo:42906:2,2021-08-02T08:45:00Z,26.6516,-94.5340,10.6,30.1,11111222
Shell,ioos:station:wmo:42906:2,2021-08-02T08:55:00Z,26.6517,-94.5338,10.7,30.0,11111222
Shell,ioos:station:wmo:42906:2,2021-08-02T09:05:00Z,26.6518,-94.5338,10.7,30.0,11111222
Shell,ioos:station:wmo:42906:2,2021-08-02T09:15:00Z,26.6519,-94.5340,10.9,30.1,11111222
Shell,ioos:station:wmo:42906:2,2021-08-02T09:25:00Z,26.6516,-94.5339,11.1,30.1,11111222
Shell,ioos:station:wmo:42906:2,2021-08-02T09:35:00Z,26.6517,-94.5341,11.0,30.1,11111222
Shell,ioos:station:wmo:42906:2,2021-08-02T09:45:00Z,26.6516,-94.5339,11.0,30.1,11111222
Shell,ioos:station:wmo:42906:2,2021-08-02T09:55:00Z,26.6516,-94.5338,10.9,30.1,11111222
Shell,ioos:station:wmo:42906:2,2021-08-02T10:05:00Z,26.6516,-94.5337,11.1,30.2,11111222
Shell,ioos:station:wmo:42906:2,2021-08-02T10:15:00Z,26.6516,-94.5335,11.0,30.2,11111222
Shell,ioos:station:wmo:42906:2,2021-08-02T10:25:00Z,26.6516,-94.5336,11.0,30.3,11111222
Shell,ioos:station:wmo:42906:2,2021-08-02T10:35:00Z,26.6516,-94.5336,11.1,30.3,11111222
Shell,ioos:station:wmo:42906:2,2021-08-02T10:45:00Z,26.6516,-94.5335,11.0,30.3,11111222
Shell,ioos:station:wmo:42906:2,2021-08-02T10:55:00Z,26.6516,-94.5336,11.0,30.3,11111222
Shell,ioos:station:wmo:42906:2,2021-08-02T11:05:00Z,26.6516,-94.5337,11.0,30.3,11111222
Shell,ioos:station:wmo:42906:2,2021-08-02T11:15:00Z,26.6517,-94.5338,11.0,30.3,11111222
Shell,ioos:station:wmo:42906:2,2021-08-02T11:25:00Z,26.6518,-94.5340,11.0,30.3,11111222
Shell,ioos:station:wmo:42906:2,2021-08-02T11:35:00Z,26.6517,-94.5340,10.9,30.3,11111222
Shell,ioos:station:wmo:42906:2,2021-08-02T11:45:00Z,26.6518,-94.5338,10.9,30.3,11111222
Shell,ioos:station:wmo:42906:2,2021-08-02T11:55:00Z,26.6519,-94.5338,10.9,30.3,11111222
Shell,ioos:station:wmo:42906:2,2021-08-02T12:05:00Z,26.6519,-94.5338,11.0,30.2,11111222
Shell,ioos:station:wmo:42906:2,2021-08-02T12:15:00Z,26.6514,-94.5335,10.9,30.2,11111222
Shell,ioos:station:wmo:42906:2,2021-08-02T12:25:00Z,26.6519,-94.5338,10.7,30.3,11111222
Shell,ioos:station:wmo:42906:2,2021-08-02T12:35:00Z,26.6524,-94.5342,10.7,30.3,11111222
Shell,ioos:station:wmo:42906:2,2021-08-02T12:45:00Z,26.6519,-94.5338,10.6,30.2,11111222
Shell,ioos:station:wmo:42906:2,2021-08-02T12:55:00Z,26.6517,-94.5338,10.8,30.2,11111222
Shell,ioos:station:wmo:42906:2,2021-08-02T13:05:00Z,26.6517,-94.5336,10.7,30.2,11111222
Shell,ioos:station:wmo:42906:2,2021-08-02T13:15:00Z,26.6516,-94.5342,10.7,30.2,11111222
Shell,ioos:station:wmo:42906:2,2021-08-02T13:25:00Z,26.6518,-94.5343,10.8,30.2,11111222
Shell,ioos:station:wmo:42906:2,2021-08-02T13:35:00Z,26.6518,-94.5339,10.9,30.2,11111222
Shell,ioos:station:wmo:42906:2,2021-08-02T13:45:00Z,26.6518,-94.5340,10.8,30.2,11111222
Shell,ioos:station:wmo:42906:2,2021-08-02T13:55:00Z,26.6512,-94.5327,10.8,30.1,11111222
Shell,ioos:station:wmo:42906:2,2021-08-02T14:05:00Z,26.6514,-94.5332,10.8,30.1,11111222
Shell,ioos:station:wmo:42906:2,2021-08-02T14:15:00Z,26.6517,-94.5337,10.8,30.1,11111222
Shell,ioos:station:wmo:42906:2,2021-08-02T14:25:00Z,26.6519,-94.5340,10.7,30.1,11111222
Shell,ioos:station:wmo:42906:2,2021-08-02T14:35:00Z,26.6522,-94.5343,10.5,30.1,11111222
Shell,ioos:station:wmo:42906:2,2021-08-02T14:45:00Z,26.6518,-94.5338,10.3,30.1,11111222
Shell,ioos:station:wmo:42906:2,2021-08-02T14:55:00Z,26.6517,-94.5337,10.5,30.1,11111222
Shell,ioos:station:wmo:42906:2,2021-08-02T15:05:00Z,26.6517,-94.5338,10.5,30.1,11111222
Shell,ioos:station:wmo:42906:2,2021-08-02T15:15:00Z,26.6516,-94.5336,10.5,30.1,11111222
Shell,ioos:station:wmo:42906:2,2021-08-02T15:25:00Z,26.6516,-94.5337,10.4,30.1,11111222
Shell,ioos:station:wmo:42906:2,2021-08-02T15:35:00Z,26.6514,-94.5339,10.4,30.1,11111222
Shell,ioos:station:wmo:42906:2,2021-08-02T15:45:00Z,26.6513,-94.5338,10.4,30.1,11111222
Shell,ioos:station:wmo:42906:2,2021-08-02T15:55:00Z,26.6516,-94.5338,10.5,30.1,11111222
Shell,ioos:station:wmo:42906:2,2021-08-02T16:06:00Z,26.6516,-94.5337,10.4,30.1,11111222
Shell,ioos:station:wmo:42906:2,2021-08-02T16:16:00Z,26.6516,-94.5338,10.4,30.1,11111222
Shell,ioos:station:wmo:42906:2,2021-08-02T16:26:00Z,26.6516,-94.5336,10.4,30.1,11111222
Shell,ioos:station:wmo:42906:2,2021-08-02T16:36:00Z,26.6519,-94.5338,10.4,30.1,11111222
Shell,ioos:station:wmo:42906:2,2021-08-02T16:46:00Z,26.6518,-94.5338,10.5,30.1,11111222
Shell,ioos:station:wmo:42906:2,2021-08-02T16:56:00Z,26.6516,-94.5338,10.5,30.1,11111222
Shell,ioos:station:wmo:42906:2,2021-08-02T17:06:00Z,26.6513,-94.5339,10.5,30.1,11111222
Shell,ioos:station:wmo:42906:2,2021-08-02T17:16:00Z,26.6515,-94.5340,10.5,30.2,11111222
Shell,ioos:station:wmo:42906:2,2021-08-02T17:26:00Z,26.6516,-94.5337,10.5,30.2,11111222
Shell,ioos:station:wmo:42906:2,2021-08-02T17:36:00Z,26.6516,-94.5336,10.5,30.2,11111222
Shell,ioos:station:wmo:42906:2,2021-08-02T17:46:00Z,26.6516,-94.5336,10.5,30.3,11111222
Shell,ioos:station:wmo:42906:2,2021-08-02T17:56:00Z,26.6518,-94.5340,10.5,30.3,11111222
Shell,ioos:station:wmo:42906:2,2021-08-02T18:06:00Z,26.6518,-94.5341,10.4,30.4,11111222
Shell,ioos:station:wmo:42906:2,2021-08-02T18:16:00Z,26.6517,-94.5339,10.4,30.4,11111222
Shell,ioos:station:wmo:42906:2,2021-08-02T18:26:00Z,26.6516,-94.5337,10.4,30.4,11111222
Shell,ioos:station:wmo:42906:2,2021-08-02T18:36:00Z,26.6516,-94.5336,10.3,30.4,11111222
Shell,ioos:station:wmo:42906:2,2021-08-02T18:46:00Z,26.6514,-94.5337,10.3,30.4,11111222
Shell,ioos:station:wmo:42906:2,2021-08-02T18:56:00Z,26.6516,-94.5337,10.3,30.5,11111222
Shell,ioos:station:wmo:42906:2,2021-08-02T19:06:00Z,26.6517,-94.5338,10.1,30.5,11111222
Shell,ioos:station:wmo:42906:2,2021-08-02T19:16:00Z,26.6516,-94.5337,10.2,30.5,11111222
Shell,ioos:station:wmo:42906:2,2021-08-02T19:26:00Z,26.6517,-94.5340,10.2,30.5,11111222
Shell,ioos:station:wmo:42906:2,2021-08-02T19:36:00Z,26.6516,-94.5339,10.3,30.5,11111222
Shell,ioos:station:wmo:42906:2,2021-08-02T19:46:00Z,26.6514,-94.5337,10.3,30.5,11111222
Shell,ioos:station:wmo:42906:2,2021-08-02T19:56:00Z,26.6516,-94.5338,10.5,30.5,11111222
Shell,ioos:station:wmo:42906:2,2021-08-02T20:06:00Z,26.6515,-94.5338,10.4,30.5,11111222
Shell,ioos:station:wmo:42906:2,2021-08-02T20:16:00Z,26.6517,-94.5339,10.3,30.5,11111222
Shell,ioos:station:wmo:42906:2,2021-08-02T20:26:00Z,26.6517,-94.5338,10.1,30.6,11111222
Shell,ioos:station:wmo:42906:2,2021-08-02T20:36:00Z,26.6518,-94.5339,10.1,30.6,11111222